Dades meteomassalio
Diari Summary for Gener 6, 2017 Units:  Metric    English   Both
« Previous Day
Next Day »
Diari Semanal Mensual Anual Personalitzat
  Maxima: Minima: Mijana:
Temperatura: -17.8 °C -19.3 °C -16.6 °C
Rosada: -17.8 °C -20.4 °C -19.6 °C
Humitat: Humidity % 36 % 70 %
Velocitat del vent: 0 km/h 0 km/h 0 km/h
Racha vent: 0 km/h - -
Vent:- - North
Pressio: 0 hPa 34831.8 hPa -
Pluja: 0 mm    
Historical Graphs
 
 
Tabular Data for Gener 6, 2017
Time Temperature Dew Point Pressure Wind Wind Speed Wind Gust Humidity Rainfall Rate (Hourly) solar Conditions
-17.8 °C -17.8 °C 0 hPa Calm     Humidity % 0 mm SolarRadiationWatts/m^2 W/m2 Conditions
00:04 -16.3 °C -18.9 °C 34831.8 hPa Calm     72 % 0 mm 0.0 W/m2 CLR
00:09 -16.4 °C -19 °C 34831.8 hPa Calm     72 % 0 mm 0.0 W/m2 CLR
00:14 -16.6 °C -18.9 °C 34831.8 hPa Calm     73 % 0 mm 0.0 W/m2 CLR
00:19 -16.6 °C -18.9 °C 34831.8 hPa Calm     74 % 0 mm 0.0 W/m2 CLR
00:24 -16.6 °C -18.9 °C 34831.8 hPa Calm     74 % 0 mm 0.0 W/m2 CLR
00:35 -16.7 °C -19.1 °C 34841.9 hPa Calm     74 % 0 mm 0.0 W/m2 CLR
00:40 -16.8 °C -19.1 °C 34841.9 hPa Calm     75 % 0 mm 0.0 W/m2 CLR
00:45 -16.9 °C -19.1 °C 34841.9 hPa Calm     76 % 0 mm 0.0 W/m2 CLR
00:50 -17 °C -19.1 °C 34841.9 hPa Calm     76 % 0 mm 0.0 W/m2 CLR
00:55 -17 °C -19 °C 34841.9 hPa Calm     77 % 0 mm 0.0 W/m2 CLR
01:00 -17 °C -19 °C 34841.9 hPa Calm     77 % 0 mm 0.0 W/m2 CLR
01:05 -17.1 °C -19.1 °C 34841.9 hPa Calm     77 % 0 mm 0.0 W/m2 CLR
01:10 -17.1 °C -19.1 °C 34841.9 hPa Calm     77 % 0 mm 0.0 W/m2 CLR
01:15 -17.2 °C -19.2 °C 34852.1 hPa Calm     77 % 0 mm 0.0 W/m2 CLR
01:20 -17.3 °C -19.2 °C 34852.1 hPa Calm     77 % 0 mm 0.0 W/m2 CLR
01:25 -17.3 °C -19.2 °C 34852.1 hPa Calm     78 % 0 mm 0.0 W/m2 CLR
01:30 -17.3 °C -19.2 °C 34852.1 hPa Calm     78 % 0 mm 0.0 W/m2 CLR
01:35 -17.6 °C -19.4 °C 34852.1 hPa Calm     78 % 0 mm 0.0 W/m2 CLR
01:40 -17.7 °C -19.4 °C 34852.1 hPa Calm     80 % 0 mm 0.0 W/m2 CLR
01:45 -17.8 °C -19.4 °C 34852.1 hPa Calm     81 % 0 mm 0.0 W/m2 CLR
01:50 -17.9 °C -19.6 °C 34852.1 hPa Calm     81 % 0 mm 0.0 W/m2 CLR
01:55 -18 °C -19.4 °C 34852.1 hPa Calm     83 % 0 mm 0.0 W/m2 CLR
02:00 -18 °C -19.4 °C 34852.1 hPa Calm     83 % 0 mm 0.0 W/m2 CLR
02:05 -18.1 °C -19.5 °C 34852.1 hPa Calm     83 % 0 mm 0.0 W/m2 CLR
02:10 -18.1 °C -19.6 °C 34852.1 hPa Calm     83 % 0 mm 0.0 W/m2 CLR
02:15 -18.2 °C -19.6 °C 34852.1 hPa Calm     83 % 0 mm 0.0 W/m2 CLR
02:20 -18.2 °C -19.6 °C 34852.1 hPa Calm     84 % 0 mm 0.0 W/m2 CLR
02:25 -18.2 °C -19.6 °C 34865.6 hPa Calm     84 % 0 mm 0.0 W/m2 CLR
02:30 -18.2 °C -19.6 °C 34865.6 hPa Calm     84 % 0 mm 0.0 W/m2 CLR
02:35 -18.2 °C -19.6 °C 34865.6 hPa Calm     84 % 0 mm 0.0 W/m2 CLR
02:40 -18.2 °C -19.5 °C 34865.6 hPa Calm     84 % 0 mm 0.0 W/m2 CLR
02:45 -18.2 °C -19.5 °C 34875.8 hPa Calm     84 % 0 mm 0.0 W/m2 CLR
02:50 -18.2 °C -19.5 °C 34875.8 hPa Calm     84 % 0 mm 0.0 W/m2 CLR
02:55 -18.2 °C -19.6 °C 34875.8 hPa Calm     84 % 0 mm 0.0 W/m2 CLR
03:00 -18.3 °C -19.7 °C 34875.8 hPa Calm     84 % 0 mm 0.0 W/m2 CLR
03:05 -18.4 °C -19.7 °C 34875.8 hPa Calm     84 % 0 mm 0.0 W/m2 CLR
03:10 -18.4 °C -19.6 °C 34889.3 hPa Calm     85 % 0 mm 0.0 W/m2 CLR
03:15 -18.4 °C -19.7 °C 34889.3 hPa Calm     85 % 0 mm 0.0 W/m2 CLR
03:20 -18.4 °C -19.6 °C 34889.3 hPa Calm     85 % 0 mm 0.0 W/m2 CLR
03:25 -18.4 °C -19.7 °C 34889.3 hPa Calm     85 % 0 mm 0.0 W/m2 CLR
03:30 -18.5 °C -19.7 °C 34889.3 hPa Calm     85 % 0 mm 0.0 W/m2 CLR
03:35 -18.4 °C -19.6 °C 34899.5 hPa Calm     86 % 0 mm 0.0 W/m2 CLR
03:40 -18.4 °C -19.7 °C 34899.5 hPa Calm     85 % 0 mm 0.0 W/m2 CLR
03:45 -18.4 °C -19.7 °C 34899.5 hPa Calm     85 % 0 mm 0.0 W/m2 CLR
03:50 -18.5 °C -19.8 °C 34899.5 hPa Calm     85 % 0 mm 0.0 W/m2 CLR
03:55 -18.6 °C -19.8 °C 34899.5 hPa Calm     85 % 0 mm 0.0 W/m2 CLR
04:00 -18.7 °C -19.8 °C 34889.3 hPa Calm     86 % 0 mm 0.0 W/m2 CLR
04:05 -18.7 °C -19.9 °C 34889.3 hPa Calm     86 % 0 mm 0.0 W/m2 CLR
04:10 -18.8 °C -19.9 °C 34889.3 hPa Calm     86 % 0 mm 0.0 W/m2 CLR
04:15 -18.8 °C -19.9 °C 34889.3 hPa Calm     87 % 0 mm 0.0 W/m2 CLR
04:20 -18.8 °C -19.9 °C 34889.3 hPa Calm     87 % 0 mm 0.0 W/m2 CLR
04:25 -18.8 °C -19.9 °C 34889.3 hPa Calm     87 % 0 mm 0.0 W/m2 CLR
04:30 -18.9 °C -19.8 °C 34889.3 hPa Calm     88 % 0 mm 0.0 W/m2 CLR
04:35 -18.9 °C -19.8 °C 34889.3 hPa Calm     88 % 0 mm 0.0 W/m2 CLR
04:40 -18.9 °C -19.8 °C 34889.3 hPa Calm     88 % 0 mm 0.0 W/m2 CLR
04:45 -18.9 °C -19.9 °C 34889.3 hPa Calm     88 % 0 mm 0.0 W/m2 CLR
04:50 -18.9 °C -19.9 °C 34889.3 hPa Calm     88 % 0 mm 0.0 W/m2 CLR
04:55 -19 °C -19.9 °C 34875.8 hPa Calm     88 % 0 mm 0.0 W/m2 CLR
05:00 -19 °C -19.9 °C 34889.3 hPa Calm     88 % 0 mm 0.0 W/m2 CLR
05:05 -18.9 °C -19.9 °C 34889.3 hPa Calm     88 % 0 mm 0.0 W/m2 CLR
05:10 -18.9 °C -19.9 °C 34889.3 hPa Calm     88 % 0 mm 0.0 W/m2 CLR
05:15 -18.9 °C -19.9 °C 34889.3 hPa Calm     88 % 0 mm 0.0 W/m2 CLR
05:20 -18.8 °C -19.8 °C 34889.3 hPa Calm     88 % 0 mm 0.0 W/m2 CLR
05:25 -18.9 °C -19.8 °C 34889.3 hPa Calm     88 % 0 mm 0.0 W/m2 CLR
05:30 -18.9 °C -19.9 °C 34889.3 hPa Calm     88 % 0 mm 0.0 W/m2 CLR
05:35 -18.9 °C -19.9 °C 34889.3 hPa Calm     88 % 0 mm 0.0 W/m2 CLR
05:40 -18.9 °C -19.9 °C 34889.3 hPa Calm     88 % 0 mm 0.0 W/m2 CLR
05:45 -18.9 °C -19.9 °C 34899.5 hPa Calm     88 % 0 mm 0.0 W/m2 CLR
05:50 -18.9 °C -19.9 °C 34899.5 hPa Calm     88 % 0 mm 0.0 W/m2 CLR
05:55 -18.9 °C -19.9 °C 34899.5 hPa Calm     88 % 0 mm 0.0 W/m2 CLR
06:00 -18.9 °C -19.9 °C 34899.5 hPa Calm     88 % 0 mm 0.0 W/m2 CLR
06:05 -18.9 °C -19.9 °C 34899.5 hPa Calm     88 % 0 mm 0.0 W/m2 CLR
06:10 -18.9 °C -19.9 °C 34899.5 hPa Calm     88 % 0 mm 0.0 W/m2 CLR
06:15 -18.8 °C -19.8 °C 34899.5 hPa Calm     88 % 0 mm 0.0 W/m2 CLR
06:20 -18.8 °C -19.8 °C 34899.5 hPa Calm     88 % 0 mm 0.0 W/m2 CLR
06:25 -18.7 °C -19.7 °C 34909.7 hPa Calm     88 % 0 mm 0.0 W/m2 CLR
06:30 -18.7 °C -19.7 °C 34909.7 hPa Calm     88 % 0 mm 0.0 W/m2 CLR
06:35 -18.7 °C -19.7 °C 34909.7 hPa Calm     87 % 0 mm 0.0 W/m2 CLR
06:40 -18.6 °C -19.8 °C 34909.7 hPa Calm     86 % 0 mm 0.0 W/m2 CLR
06:45 -18.7 °C -19.8 °C 34909.7 hPa Calm     86 % 0 mm 0.0 W/m2 CLR
06:50 -18.7 °C -19.9 °C 34909.7 hPa Calm     85 % 0 mm 0.0 W/m2 CLR
06:55 -18.8 °C -19.9 °C 34909.7 hPa Calm     86 % 0 mm 0.0 W/m2 CLR
07:00 -18.8 °C -19.9 °C 34909.7 hPa Calm     86 % 0 mm 0.0 W/m2 CLR
07:05 -18.8 °C -19.9 °C 34909.7 hPa Calm     87 % 0 mm 0.0 W/m2 CLR
07:10 -18.8 °C -19.9 °C 34923.2 hPa Calm     87 % 0 mm 0.0 W/m2 CLR
07:16 -18.8 °C -19.9 °C 34923.2 hPa Calm     87 % 0 mm 0.0 W/m2 CLR
07:21 -18.8 °C -19.9 °C 34923.2 hPa Calm     87 % 0 mm 0.0 W/m2 CLR
07:26 -18.8 °C -19.8 °C 34933.4 hPa Calm     87 % 0 mm 0.0 W/m2 CLR
07:31 -18.8 °C -19.9 °C 34933.4 hPa Calm     86 % 0 mm 0.0 W/m2 CLR
07:36 -18.9 °C -20.1 °C 34933.4 hPa Calm     86 % 0 mm 0.0 W/m2 CLR
07:41 -19 °C -20.1 °C 34933.4 hPa Calm     87 % 0 mm 0.0 W/m2 CLR
07:46 -18.9 °C -20 °C 34933.4 hPa Calm     87 % 0 mm 0.0 W/m2 CLR
07:51 -19 °C -20.1 °C 34933.4 hPa Calm     87 % 0 mm 0.0 W/m2 CLR
07:56 -19.1 °C -20.1 °C 34933.4 hPa Calm     87 % 0 mm 0.0 W/m2 CLR
08:01 -19.2 °C -20.2 °C 34933.4 hPa Calm     87 % 0 mm 0.0 W/m2 CLR
08:06 -19.3 °C -20.3 °C 34933.4 hPa Calm     87 % 0 mm 0.0 W/m2 CLR
08:11 -19.2 °C -20.1 °C 34933.4 hPa Calm     88 % 0 mm 0.0 W/m2 CLR
08:16 -19.1 °C -20.1 °C 34923.2 hPa Calm     88 % 0 mm 0.0 W/m2 CLR
08:21 -19.1 °C -20.1 °C 34933.4 hPa Calm     88 % 0 mm 0.0 W/m2 CLR
08:26 -19.1 °C -20.2 °C 34933.4 hPa Calm     87 % 0 mm 5.0 W/m2 BKN
08:31 -19.1 °C -20.1 °C 34933.4 hPa Calm     88 % 0 mm 7.0 W/m2 BKN
08:36 -19.1 °C -20.1 °C 34933.4 hPa Calm     87 % 0 mm 9.0 W/m2 BKN
08:41 -19 °C -20.1 °C 34933.4 hPa Calm     87 % 0 mm 12.0 W/m2 BKN
08:46 -18.8 °C -19.9 °C 34933.4 hPa Calm     87 % 0 mm 14.0 W/m2 BKN
08:51 -18.8 °C -19.9 °C 34946.9 hPa Calm     86 % 0 mm 16.0 W/m2 BKN
08:56 -18.7 °C -19.8 °C 34946.9 hPa Calm     86 % 0 mm 21.0 W/m2 BKN
09:01 -18.6 °C -19.7 °C 34946.9 hPa Calm     86 % 0 mm 33.0 W/m2 BKN
09:06 -18.4 °C -19.7 °C 34946.9 hPa Calm     85 % 0 mm 40.0 W/m2 BKN
09:11 -18.4 °C -19.7 °C 34946.9 hPa Calm     84 % 0 mm 62.0 W/m2 BKN
09:21 -18.2 °C -19.6 °C 34946.9 hPa Calm     83 % 0 mm 56.0 W/m2 BKN
09:26 -17.9 °C -19.3 °C 34946.9 hPa Calm     83 % 0 mm 69.0 W/m2 BKN
09:31 -17.8 °C -19.3 °C 34946.9 hPa Calm     82 % 0 mm 91.0 W/m2 BKN
09:36 -17.6 °C -19.1 °C 34957.1 hPa Calm     82 % 0 mm 95.0 W/m2 BKN
09:41 -17.4 °C -19.1 °C 34957.1 hPa Calm     81 % 0 mm 134.0 W/m2 BKN
09:46 -17.4 °C -19.1 °C 34957.1 hPa Calm     80 % 0 mm 144.0 W/m2 BKN
09:51 -17.3 °C -19.1 °C 34957.1 hPa Calm     79 % 0 mm 121.0 W/m2 SCT
09:56 -17.2 °C -19 °C 34957.1 hPa Calm     79 % 0 mm 172.0 W/m2 SCT
10:01 -16.9 °C -18.8 °C 34957.1 hPa Calm     78 % 0 mm 186.0 W/m2 SCT
10:06 -16.7 °C -18.8 °C 34957.1 hPa Calm     76 % 0 mm 130.0 W/m2 SCT
10:11 -16.6 °C -18.8 °C 34957.1 hPa Calm     74 % 0 mm 209.0 W/m2 SCT
10:17 -16.4 °C -18.8 °C 34957.1 hPa Calm     73 % 0 mm 109.0 W/m2 SCT
10:27 -16.2 °C -18.8 °C 34957.1 hPa Calm     71 % 0 mm 250.0 W/m2 SCT
10:32 -16.1 °C -18.7 °C 34957.1 hPa Calm     71 % 0 mm 260.0 W/m2 SCT
10:37 -16 °C -18.8 °C 34957.1 hPa Calm     69 % 0 mm 271.0 W/m2 SCT
10:42 -15.8 °C -18.8 °C 34967.2 hPa Calm     68 % 0 mm 279.0 W/m2 SCT
10:47 -15.7 °C -18.8 °C 34967.2 hPa Calm     66 % 0 mm 292.0 W/m2 SCT
10:52 -15.4 °C -18.8 °C 34967.2 hPa Calm     65 % 0 mm 302.0 W/m2 FEW
10:57 -15.2 °C -18.7 °C 34957.1 hPa Calm     64 % 0 mm 311.0 W/m2 FEW
11:02 -15.1 °C -18.7 °C 34967.2 hPa Calm     63 % 0 mm 320.0 W/m2 FEW
11:07 -14.9 °C -19.1 °C 34957.1 hPa Calm     59 % 0 mm 330.0 W/m2 FEW
11:12 -14.8 °C -19.1 °C 34967.2 hPa Calm     58 % 0 mm 339.0 W/m2 FEW
11:17 -14.7 °C -18.9 °C 34957.1 hPa Calm     58 % 0 mm 348.0 W/m2 FEW
11:22 -14.4 °C -18.7 °C 34957.1 hPa Calm     58 % 0 mm 355.0 W/m2 FEW
11:27 -14.1 °C -18.9 °C 34957.1 hPa Calm     54 % 0 mm 364.0 W/m2 FEW
11:32 -13.8 °C -18.8 °C 34957.1 hPa Calm     53 % 0 mm 371.0 W/m2 FEW
11:37 -13.8 °C -19.2 °C 34957.1 hPa Calm     50 % 0 mm 378.0 W/m2 FEW
11:42 -13.7 °C -19 °C 34957.1 hPa Calm     51 % 0 mm 385.0 W/m2 FEW
11:47 -13.8 °C -19.5 °C 34957.1 hPa Calm     48 % 0 mm 390.0 W/m2 FEW
11:52 -13.7 °C -19.4 °C 34946.9 hPa Calm     48 % 0 mm 399.0 W/m2 FEW
11:57 -13.7 °C -19.4 °C 34946.9 hPa Calm     48 % 0 mm 404.0 W/m2 CLR
12:02 -13.7 °C -19.7 °C 34946.9 hPa Calm     46 % 0 mm 410.0 W/m2 CLR
12:07 -13.6 °C -19.5 °C 34946.9 hPa Calm     47 % 0 mm 415.0 W/m2 CLR
12:12 -13.6 °C -19.8 °C 34946.9 hPa Calm     45 % 0 mm 420.0 W/m2 CLR
12:17 -13.5 °C -19.6 °C 34933.4 hPa Calm     46 % 0 mm 424.0 W/m2 CLR
12:22 -13.4 °C -19.5 °C 34933.4 hPa Calm     46 % 0 mm 427.0 W/m2 CLR
12:27 -13.4 °C -19.6 °C 34933.4 hPa Calm     45 % 0 mm 431.0 W/m2 CLR
12:32 -13.4 °C -19.7 °C 34923.2 hPa Calm     45 % 0 mm 434.0 W/m2 CLR
12:37 -13.4 °C -19.8 °C 34923.2 hPa Calm     44 % 0 mm 436.0 W/m2 CLR
12:42 -13.3 °C -19.4 °C 34923.2 hPa Calm     46 % 0 mm 439.0 W/m2 CLR
12:47 -13.2 °C -19.7 °C 34909.7 hPa Calm     44 % 0 mm 441.0 W/m2 CLR
12:52 -13.2 °C -19.8 °C 34909.7 hPa Calm     43 % 0 mm 443.0 W/m2 CLR
12:57 -13.1 °C -19.8 °C 34909.7 hPa Calm     42 % 0 mm 443.0 W/m2 CLR
13:02 -12.9 °C -19.4 °C 34909.7 hPa Calm     44 % 0 mm 446.0 W/m2 CLR
13:07 -12.8 °C -19.4 °C 34909.7 hPa Calm     43 % 0 mm 446.0 W/m2 CLR
13:12 -12.9 °C -19.5 °C 34909.7 hPa Calm     43 % 0 mm 446.0 W/m2 CLR
13:18 -12.8 °C -19.8 °C 34899.5 hPa Calm     41 % 0 mm 445.0 W/m2 CLR
13:23 -12.8 °C -19.5 °C 34899.5 hPa Calm     43 % 0 mm 445.0 W/m2 CLR
13:28 -12.9 °C -19.5 °C 34899.5 hPa Calm     43 % 0 mm 443.0 W/m2 CLR
13:33 -12.9 °C -19.6 °C 34899.5 hPa Calm     43 % 0 mm 441.0 W/m2 CLR
13:38 -12.9 °C -19.8 °C 34899.5 hPa Calm     42 % 0 mm 439.0 W/m2 CLR
13:43 -12.9 °C -19.5 °C 34899.5 hPa Calm     43 % 0 mm 438.0 W/m2 CLR
13:48 -12.9 °C -19.7 °C 34889.3 hPa Calm     42 % 0 mm 434.0 W/m2 CLR
13:53 -12.8 °C -19.8 °C 34889.3 hPa Calm     41 % 0 mm 432.0 W/m2 CLR
13:58 -12.7 °C -19.6 °C 34889.3 hPa Calm     42 % 0 mm 429.0 W/m2 CLR
14:03 -12.7 °C -19.7 °C 34889.3 hPa Calm     41 % 0 mm 424.0 W/m2 CLR
14:08 -12.7 °C -19.1 °C 34875.8 hPa Calm     44 % 0 mm 420.0 W/m2 CLR
14:13 -12.7 °C -19.5 °C 34875.8 hPa Calm     42 % 0 mm 415.0 W/m2 CLR
14:18 -12.6 °C -19.8 °C 34875.8 hPa Calm     40 % 0 mm 411.0 W/m2 CLR
14:23 -12.6 °C -19.9 °C 34875.8 hPa Calm     39 % 0 mm 406.0 W/m2 CLR
14:28 -12.6 °C -20 °C 34875.8 hPa Calm     39 % 0 mm 399.0 W/m2 CLR
14:33 -12.6 °C -19.6 °C 34875.8 hPa Calm     41 % 0 mm 394.0 W/m2 CLR
14:38 -12.6 °C -19.7 °C 34875.8 hPa Calm     40 % 0 mm 387.0 W/m2 CLR
14:43 -12.4 °C -20.4 °C 34875.8 hPa Calm     36 % 0 mm 380.0 W/m2 CLR
14:48 -12.3 °C -19.9 °C 34865.6 hPa Calm     38 % 0 mm 373.0 W/m2 CLR
14:53 -12.3 °C -19.9 °C 34865.6 hPa Calm     38 % 0 mm 366.0 W/m2 CLR
14:58 -12.3 °C -20.1 °C 34865.6 hPa Calm     37 % 0 mm 359.0 W/m2 CLR
15:03 -12.3 °C -19.9 °C 34865.6 hPa Calm     38 % 0 mm 350.0 W/m2 CLR
15:08 -12.3 °C -19.6 °C 34865.6 hPa Calm     40 % 0 mm 339.0 W/m2 CLR
15:13 -12.3 °C -19.9 °C 34865.6 hPa Calm     38 % 0 mm 332.0 W/m2 CLR
15:18 -12.3 °C -19.6 °C 34865.6 hPa Calm     40 % 0 mm 323.0 W/m2 CLR
15:23 -12.3 °C -19.7 °C 34852.1 hPa Calm     39 % 0 mm 313.0 W/m2 CLR
15:28 -12.3 °C -19.7 °C 34852.1 hPa Calm     39 % 0 mm 302.0 W/m2 CLR
15:33 -12.2 °C -19.9 °C 34852.1 hPa Calm     37 % 0 mm 294.0 W/m2 CLR
15:38 -12.2 °C -19.8 °C 34865.6 hPa Calm     38 % 0 mm 281.0 W/m2 CLR
15:43 -12.2 °C -19.6 °C 34865.6 hPa Calm     39 % 0 mm 269.0 W/m2 CLR
15:48 -12.3 °C -19.7 °C 34865.6 hPa Calm     39 % 0 mm 257.0 W/m2 CLR
15:53 -12.2 °C -19.6 °C 34865.6 hPa Calm     39 % 0 mm 243.0 W/m2 CLR
15:58 -12.3 °C -19.3 °C 34865.6 hPa Calm     41 % 0 mm 229.0 W/m2 CLR
16:03 -12.2 °C -19.1 °C 34865.6 hPa Calm     42 % 0 mm 216.0 W/m2 CLR
16:08 -12.3 °C -19.6 °C 34865.6 hPa Calm     40 % 0 mm 202.0 W/m2 CLR
16:13 -12.3 °C -19.2 °C 34865.6 hPa Calm     42 % 0 mm 185.0 W/m2 CLR
16:18 -12.3 °C -19.7 °C 34865.6 hPa Calm     39 % 0 mm 171.0 W/m2 CLR
16:23 -12.3 °C -19.5 °C 34865.6 hPa Calm     40 % 0 mm 156.0 W/m2 CLR
16:28 -12.3 °C -19.3 °C 34865.6 hPa Calm     41 % 0 mm 142.0 W/m2 CLR
16:33 -12.3 °C -19.3 °C 34875.8 hPa Calm     41 % 0 mm 130.0 W/m2 CLR
16:38 -12.3 °C -19.2 °C 34875.8 hPa Calm     42 % 0 mm 113.0 W/m2 CLR
16:43 -12.3 °C -19.3 °C 34875.8 hPa Calm     41 % 0 mm 100.0 W/m2 CLR
16:53 -12.3 °C -19 °C 34875.8 hPa Calm     43 % 0 mm 76.0 W/m2 CLR
16:58 -12.4 °C -19.2 °C 34875.8 hPa Calm     42 % 0 mm 54.0 W/m2 CLR
17:03 -12.4 °C -19.1 °C 34875.8 hPa Calm     43 % 0 mm 51.0 W/m2 OVC
17:08 -12.6 °C -19.2 °C 34875.8 hPa Calm     43 % 0 mm 40.0 W/m2 OVC
17:13 -12.7 °C -18.8 °C 34875.8 hPa Calm     46 % 0 mm 28.0 W/m2 OVC
17:18 -12.8 °C -19.3 °C 34875.8 hPa Calm     44 % 0 mm 19.0 W/m2 OVC
17:23 -12.9 °C -19.2 °C 34875.8 hPa Calm     45 % 0 mm 14.0 W/m2 OVC
17:28 -13.2 °C -19.4 °C 34875.8 hPa Calm     45 % 0 mm 12.0 W/m2 OVC
17:33 -13.4 °C -19.8 °C 34875.8 hPa Calm     44 % 0 mm 11.0 W/m2 OVC
17:38 -13.6 °C -20 °C 34875.8 hPa Calm     44 % 0 mm 7.0 W/m2 OVC
17:43 -13.8 °C -20.1 °C 34889.3 hPa Calm     45 % 0 mm 5.0 W/m2 OVC
17:48 -14.1 °C -20.1 °C 34889.3 hPa Calm     46 % 0 mm 5.0 W/m2 CLR
17:53 -14.2 °C -20.2 °C 34889.3 hPa Calm     46 % 0 mm 0.0 W/m2 CLR
17:58 -14.3 °C -20 °C 34889.3 hPa Calm     48 % 0 mm 0.0 W/m2 CLR
18:03 -14.6 °C -20.2 °C 34889.3 hPa Calm     48 % 0 mm 0.0 W/m2 CLR
18:08 -14.7 °C -19.9 °C 34889.3 hPa Calm     51 % 0 mm 0.0 W/m2 CLR
18:13 -14.9 °C -19.5 °C 34889.3 hPa Calm     55 % 0 mm 0.0 W/m2 CLR
18:18 -15.2 °C -19.5 °C 34889.3 hPa Calm     57 % 0 mm 0.0 W/m2 CLR
18:23 -15.4 °C -19.6 °C 34899.5 hPa Calm     59 % 0 mm 0.0 W/m2 CLR
18:28 -15.7 °C -19.5 °C 34899.5 hPa Calm     61 % 0 mm 0.0 W/m2 CLR
18:34 -15.9 °C -19.4 °C 34899.5 hPa Calm     63 % 0 mm 0.0 W/m2 CLR
18:39 -16.1 °C -19.5 °C 34899.5 hPa Calm     64 % 0 mm 0.0 W/m2 CLR
18:44 -16.2 °C -19.4 °C 34899.5 hPa Calm     66 % 0 mm 0.0 W/m2 CLR
18:49 -16.4 °C -19.4 °C 34909.7 hPa Calm     67 % 0 mm 0.0 W/m2 CLR
18:54 -16.5 °C -19.4 °C 34909.7 hPa Calm     68 % 0 mm 0.0 W/m2 CLR
18:59 -16.6 °C -19.5 °C 34909.7 hPa Calm     69 % 0 mm 0.0 W/m2 CLR
19:04 -16.7 °C -19.4 °C 34909.7 hPa Calm     70 % 0 mm 0.0 W/m2 CLR
19:09 -16.8 °C -19.4 °C 34923.2 hPa Calm     71 % 0 mm 0.0 W/m2 CLR
19:14 -16.8 °C -19.4 °C 34923.2 hPa Calm     71 % 0 mm 0.0 W/m2 CLR
19:19 -16.9 °C -19.4 °C 34923.2 hPa Calm     72 % 0 mm 0.0 W/m2 CLR
19:24 -17 °C -19.5 °C 34923.2 hPa Calm     72 % 0 mm 0.0 W/m2 CLR
19:29 -17.1 °C -19.5 °C 34933.4 hPa Calm     73 % 0 mm 0.0 W/m2 CLR
19:34 -17.2 °C -19.6 °C 34933.4 hPa Calm     73 % 0 mm 0.0 W/m2 CLR
19:39 -17.3 °C -19.6 °C 34933.4 hPa Calm     74 % 0 mm 0.0 W/m2 CLR
19:44 -17.3 °C -19.6 °C 34933.4 hPa Calm     74 % 0 mm 0.0 W/m2 CLR
19:49 -17.4 °C -19.6 °C 34933.4 hPa Calm     75 % 0 mm 0.0 W/m2 CLR
19:54 -17.5 °C -19.7 °C 34933.4 hPa Calm     75 % 0 mm 0.0 W/m2 CLR
19:59 -17.6 °C -19.7 °C 34933.4 hPa Calm     76 % 0 mm 0.0 W/m2 CLR
20:04 -17.7 °C -19.7 °C 34933.4 hPa Calm     77 % 0 mm 0.0 W/m2 CLR
20:09 -17.7 °C -19.7 °C 34933.4 hPa Calm     77 % 0 mm 0.0 W/m2 CLR
20:14 -17.8 °C -19.8 °C 34933.4 hPa Calm     77 % 0 mm 0.0 W/m2 CLR
20:19 -17.9 °C -19.8 °C 34933.4 hPa Calm     78 % 0 mm 0.0 W/m2 CLR
20:24 -17.9 °C -19.8 °C 34933.4 hPa Calm     78 % 0 mm 0.0 W/m2 CLR
20:29 -18 °C -19.8 °C 34933.4 hPa Calm     79 % 0 mm 0.0 W/m2 CLR
20:34 -18.1 °C -19.8 °C 34933.4 hPa Calm     79 % 0 mm 0.0 W/m2 CLR
20:39 -18.1 °C -19.8 °C 34933.4 hPa Calm     80 % 0 mm 0.0 W/m2 CLR
20:44 -18.2 °C -19.8 °C 34933.4 hPa Calm     80 % 0 mm 0.0 W/m2 CLR
20:49 -18.2 °C -19.8 °C 34946.9 hPa Calm     80 % 0 mm 0.0 W/m2 CLR
20:54 -18.2 °C -19.8 °C 34946.9 hPa Calm     80 % 0 mm 0.0 W/m2 CLR
20:59 -18.2 °C -19.9 °C 34946.9 hPa Calm     80 % 0 mm 0.0 W/m2 CLR
21:04 -18.3 °C -19.9 °C 34946.9 hPa Calm     80 % 0 mm 0.0 W/m2 CLR
21:09 -18.3 °C -19.8 °C 34946.9 hPa Calm     81 % 0 mm 0.0 W/m2 CLR
21:14 -18.3 °C -19.9 °C 34946.9 hPa Calm     80 % 0 mm 0.0 W/m2 CLR
21:19 -18.3 °C -19.9 °C 34946.9 hPa Calm     80 % 0 mm 0.0 W/m2 CLR
21:24 -18.3 °C -19.9 °C 34946.9 hPa Calm     81 % 0 mm 0.0 W/m2 CLR
21:29 -18.4 °C -19.9 °C 34946.9 hPa Calm     82 % 0 mm 0.0 W/m2 CLR
21:34 -18.4 °C -20 °C 34946.9 hPa Calm     81 % 0 mm 0.0 W/m2 CLR
21:39 -18.4 °C -19.9 °C 34957.1 hPa Calm     82 % 0 mm 0.0 W/m2 CLR
21:44 -18.4 °C -19.9 °C 34957.1 hPa Calm     82 % 0 mm 0.0 W/m2 CLR
21:49 -18.5 °C -19.9 °C 34957.1 hPa Calm     82 % 0 mm 0.0 W/m2 CLR
21:54 -18.5 °C -20 °C 34957.1 hPa Calm     82 % 0 mm 0.0 W/m2 CLR
21:59 -18.5 °C -20 °C 34957.1 hPa Calm     82 % 0 mm 0.0 W/m2 CLR
22:04 -18.5 °C -20 °C 34957.1 hPa Calm     82 % 0 mm 0.0 W/m2 CLR
22:09 -18.6 °C -20.1 °C 34957.1 hPa Calm     82 % 0 mm 0.0 W/m2 CLR
22:14 -18.6 °C -20.1 °C 34957.1 hPa Calm     82 % 0 mm 0.0 W/m2 CLR
22:19 -18.7 °C -20.1 °C 34957.1 hPa Calm     83 % 0 mm 0.0 W/m2 CLR
22:24 -18.7 °C -20.1 °C 34957.1 hPa Calm     83 % 0 mm 0.0 W/m2 CLR
22:29 -18.8 °C -20.1 °C 34957.1 hPa Calm     84 % 0 mm 0.0 W/m2 CLR
22:34 -18.8 °C -20.1 °C 34957.1 hPa Calm     84 % 0 mm 0.0 W/m2 CLR
22:39 -18.8 °C -20.1 °C 34957.1 hPa Calm     84 % 0 mm 0.0 W/m2 CLR
22:44 -18.8 °C -20.1 °C 34967.2 hPa Calm     84 % 0 mm 0.0 W/m2 CLR
22:49 -18.8 °C -20.2 °C 34967.2 hPa Calm     84 % 0 mm 0.0 W/m2 CLR
22:54 -18.9 °C -20.2 °C 34967.2 hPa Calm     84 % 0 mm 0.0 W/m2 CLR
22:59 -18.9 °C -20.1 °C 34967.2 hPa Calm     85 % 0 mm 0.0 W/m2 CLR
23:04 -18.9 °C -20.2 °C 34967.2 hPa Calm     85 % 0 mm 0.0 W/m2 CLR
23:09 -18.9 °C -20.2 °C 34967.2 hPa Calm     85 % 0 mm 0.0 W/m2 CLR
23:14 -19 °C -20.2 °C 34967.2 hPa Calm     85 % 0 mm 0.0 W/m2 CLR
23:19 -19 °C -20.2 °C 34967.2 hPa Calm     85 % 0 mm 0.0 W/m2 CLR
23:24 -19 °C -20.2 °C 34967.2 hPa Calm     85 % 0 mm 0.0 W/m2 CLR
23:34 -19.1 °C -20.2 °C 34967.2 hPa Calm     85 % 0 mm 0.0 W/m2 CLR
23:39 -19.1 °C -20.3 °C 34967.2 hPa Calm     85 % 0 mm 0.0 W/m2 CLR
23:44 -19.1 °C -20.3 °C 34967.2 hPa Calm     85 % 0 mm 0.0 W/m2 CLR
23:49 -19.1 °C -20.2 °C 34967.2 hPa Calm     86 % 0 mm 0.0 W/m2 CLR
23:54 -19.1 °C -20.2 °C 34967.2 hPa Calm     86 % 0 mm 0.0 W/m2 CLR
23:59 -19.1 °C -20.2 °C 34967.2 hPa Calm     86 % 0 mm 0.0 W/m2 CLR
Lo Temps de Massalio
Compliments of Weather Underground - 1.25 mb